Team logos
Team Leaderboard Add or Update a Person FAQ
Dec 2014 - The AWL Octagon Challenge
This challenge was chosen by Age Without Limits.

It's a set of eight 135 metre intervals with one minute rest.

First interval from a standing start, the rest rolling or static

There are no stroke rate restrictions
Record your total time (not including the rests) for 1080m.


The January challenge will be chosen by the French Indoor Rowing Team (FIRT)

See the ISS forum thread for details.

Most Recent EntriesAdd/Update an Entry
DateNameCatTeamResult
2014-12-18Maryanne MaguireFHWTForum Flyers 3:36.3
2014-12-18Sebastien ChaumioleMHWTFIRT 3:13.0
2014-12-18Jeremy HeavenMHWTSub 7 3:23.1
2014-12-18Philip PriceMLWTFree Spirits 3:56.9
2014-12-17MCombFHWTFIRT 4:00.9
Bold = new time; italic = updated time
Name:
Password:
Entry: hours min sec
 
Current Leaderboard
Names in blue italics have added or updated their times within the past 24 hours.
#NameCatTeamResultPacePower
1Dirk MöllerMForum Flyers I  2:40.8   1:14.4  848.3 
2rich pruynMForum Flyers I  2:45.7   1:16.7  775.3 
3macrothMForum Flyers I  2:46.7   1:17.2  761.4 
4Rich BlagroveMMAD I  2:46.9   1:17.3  758.7 
5Shawn BakerMForum Flyers II  2:48.1   1:17.8  742.6 
6Shaun GibbsMSub 7 I  2:48.3   1:17.9  739.9 
7Vincent noirotMFIRT I  2:49.0   1:18.2  730.8 
8Matt VanstoneMSub 7 I  2:49.5   1:18.5  724.3 
9Casey ClarkeMSub 7 I  2:49.8   1:18.6  720.5 
10Lloyd GilbyMSub 7 II  2:49.9   1:18.7  719.2 
11Jon GoodallMMAD I  2:50.7   1:19.0  709.1 
12Ben GilmoreMSub 7 II  2:51.1   1:19.2  704.2 
13noelMPaddy Power I  2:52.1   1:19.7  692.0 
14LiefcatMFree Spirits I  2:52.2   1:19.7  690.8 
15David ScottMSub 7 II  2:52.6   1:19.9  686.0 
16Pete MarstonMMAD I  2:52.7   1:20.0  684.8 
17Phil HoyleMC2TweetCrew I  2:52.7   1:20.0  684.8 
18Stewart WyllieMRowPro Rowers I  2:53.0   1:20.1  681.2 
19Mark PowellMSub 7 III  2:53.1   1:20.1  680.0 
20Merlen.AlexandreMFIRT I  2:54.7   1:20.9  661.5 
21Sergio BottiMRowPro Rowers I  2:54.8   1:20.9  660.4 
22R2C2MFIRT I  2:55.3   1:21.2  654.8 
23Alan ThomasMSub 7 III  2:55.4   1:21.2  653.6 
24Jean-Charles RSMFIRT II  2:55.6   1:21.3  651.4 
25David ByrnesmSub 7 I  2:56.0   1:21.5  647.0 
26Mark ChristieMForum Flyers II  2:56.6   1:21.8  640.4 
27Charles AndersonMC2TweetCrew I  2:56.6   1:21.8  640.4 
28danfennellMFree Spirits I  2:56.9   1:21.9  637.2 
29Martin StillMSub 7 III  2:57.0   1:21.9  636.1 
30Vivien MarmelatMFIRT II  2:57.5   1:22.2  630.7 
31Gary CurtisMIndependent I  2:57.7   1:22.3  628.6 
32Julian WarrickMPaddy Power I  2:57.7   1:22.3  628.6 
33Thibaud MISCORIAMFIRT II  2:57.8   1:22.3  627.5 
34MarkM FFMForum Flyers II  2:57.8   1:22.3  627.5 
35Johan EklundMRote 87 RK I  2:58.0   1:22.4  625.4 
36Walter ZagzebskiMSub 7 IV  2:58.1   1:22.5  624.4 
37Christopher RyanMFree Spirits I  2:58.1   1:22.5  624.4 
38Andy J PearceMC2TweetCrew I  2:58.1   1:22.5  624.4 
39GukUMFIRT III  2:58.1   1:22.5  624.4 
40Ian AllenS7MSub 7 IV  2:58.7   1:22.7  618.1 
41bruceMFIRT III  2:58.7   1:22.7  618.1 
42Ian WittMSub 7 IV  2:59.0   1:22.9  615.0 
43Gaël SAGONMFIRT III  2:59.1   1:22.9  614.0 
44Howard BrammerMFitness Matters I  2:59.1   1:22.9  614.0 
45Martin FFMForum Flyers III  2:59.1   1:22.9  614.0 
46Jonty LeeseMSub 7 V  2:59.4   1:23.1  610.9 
47Jason McCormackMPaddy Power I  2:59.7   1:23.2  607.8 
48LindsayhMForum Flyers III  2:59.8   1:23.2  606.8 
49James PritchardMFit Republik I  2:59.9   1:23.3  605.8 
50Johnny KolsterMSub 7 V  2:59.9   1:23.3  605.8 
51HewittMFree Spirits II  3:00.5   1:23.6  599.8 
52Simon NewtonMGee Crew I  3:00.6   1:23.6  598.8 
53MBOY-AIPMFIRT IV  3:00.7   1:23.7  597.8 
54Barry GreigMSub 7 V  3:01.2   1:23.9  592.9 
55Jonathan DoylemPaddy Power I  3:01.3   1:23.9  591.9 
56Frank NoorlanderMForum Flyers III  3:01.6   1:24.1  589.0 
57Ralf AchenbachMC2TweetCrew II  3:02.0   1:24.3  585.1 
58HillclimberMForum Flyers IV  3:02.2   1:24.4  583.2 
59Robert JonesMSub 7 VI  3:02.3   1:24.4  582.2 
60Matt B BrownMForum Flyers IV  3:02.4   1:24.4  581.2 
61Ben MMTribesports I  3:02.8   1:24.6  577.4 
62Steve RoeddemTeam Oarsome I  3:02.9   1:24.7  576.5 
63js.klsmFIRT I  3:02.9   1:24.7  576.5 
64Aaron LancasterMSub 7 VI  3:03.4   1:24.9  571.8 
65Markku HenrikssonmSub 7 II  3:03.5   1:25.0  570.8 
66Richard CheesemanMSub 7 VI  3:03.5   1:25.0  570.8 
67Mike BeauchampMSub 7 VII  3:03.5   1:25.0  570.8 
68haaicoMFree Spirits II  3:03.7   1:25.0  569.0 
69Pitras sebastienMFIRT IV  3:03.9   1:25.1  567.1 
70Mike Channin (Tribesports)MTribesports I  3:04.0   1:25.2  566.2 
71Little ChrismThe Banana Boat I  3:04.1   1:25.2  565.3 
72Kieran CahillmMAD I  3:04.2   1:25.3  564.4 
73Chris FFmForum Flyers I  3:04.6   1:25.5  560.7 
74Richard MooreheadMPaddy Power II  3:04.7   1:25.5  559.8 
75Dave ChmilowskyjMTeam Oarsome I  3:04.8   1:25.6  558.9 
76Mark LysonsMSub 7 VII  3:04.8   1:25.6  558.9 
77Nizar El AhmarmFit Republik I  3:05.1   1:25.7  556.2 
78Julien ADANMFIRT IV  3:05.5   1:25.9  552.6 
79Richard SteventonMSub 7 VII  3:05.7   1:26.0  550.8 
80FS85mSub 7 III  3:05.9   1:26.1  549.0 
81EricLMFIRT V  3:06.0   1:26.1  548.1 
82Giles ClarkeMSub 7 VIII  3:06.0   1:26.1  548.1 
83Dan mynardMPaddy Power II  3:06.0   1:26.1  548.1 
84Stewart MossMSub 7 VIII  3:06.0   1:26.1  548.1 
85Thomas PoppenMRote 87 RK I  3:06.0   1:26.1  548.1 
86TjololoMFIRT V  3:06.0   1:26.1  548.1 
87Andy BurrowsMTeam Oarsome I  3:06.1   1:26.2  547.3 
88Ryan HoskingmRowPro Rowers I  3:06.2   1:26.2  546.4 
89Steve SidawayMSub 7 VIII  3:06.2   1:26.2  546.4 
90Arwed EggermRowPro Rowers I  3:06.4   1:26.3  544.6 
91PaosullivanMPaddy Power II  3:06.5   1:26.3  543.7 
92gregsmith01748MFree Spirits II  3:06.7   1:26.4  542.0 
93James stapletonMIndependent I  3:07.0   1:26.6  539.4 
94Pierre LGMMFIRT V  3:07.1   1:26.6  538.5 
95Jonathan Turns S7MSub 7 IX  3:07.2   1:26.7  537.7 
96Jon CiarloMSub 7 IX  3:07.2   1:26.7  537.7 
97Andy ParkesMGee Crew I  3:07.2   1:26.7  537.7 
98Boris LewandowskiMFree Spirits III  3:07.4   1:26.8  535.9 
99Aurelien USVMFIRT VI  3:07.6   1:26.9  534.2 
100Nicolas.maximeMFIRT VI  3:07.7   1:26.9  533.4 
101D WiklanderMRote 87 RK I  3:07.9   1:27.0  531.7 
102Gregory Cook IImTeam Oarsome I  3:08.0   1:27.0  530.8 
103Conny J.mRote 87 RK I  3:08.1   1:27.1  530.0 
104tiboMFIRT VI  3:08.1   1:27.1  530.0 
105Avedikian.mathieuMFIRT VII  3:08.2   1:27.1  529.1 
106Mauhourat.guillaumeMFIRT VII  3:08.2   1:27.1  529.1 
107Rae CarterMC2TweetCrew II  3:08.4   1:27.2  527.5 
108Sean McGuiganMSub 7 IX  3:08.4   1:27.2  527.5 
109Rolf BoersMForum Flyers IV  3:08.8   1:27.4  524.1 
110Stuart JacksonmSub 7 IV  3:08.9   1:27.5  523.3 
111Yousef NassarMFit Republik I  3:08.9   1:27.5  523.3 
112Gareth BaconMFit Republik I  3:09.2   1:27.6  520.8 
113JFF.54MFIRT VII  3:09.3   1:27.6  520.0 
114John SteventonmFree Spirits I  3:09.6   1:27.8  517.5 
115Nick MallorymFit Republik II  3:09.7   1:27.8  516.7 
116david FROCmFIRT II  3:09.7   1:27.8  516.7 
117Adam FredMFIRT VIII  3:09.9   1:27.9  515.1 
118Steve BerridgemSub 7 V  3:09.9   1:27.9  515.1 
119Xav salamandreMFIRT VIII  3:10.0   1:28.0  514.2 
120Marc BarfootMIndependent I  3:10.3   1:28.1  511.8 
121Nigel FarmerMForum Flyers V  3:10.4   1:28.1  511.0 
122DimosmSub 7 VI  3:10.5   1:28.2  510.2 
123Paul VictoryMFree Spirits III  3:10.5   1:28.2  510.2 
124attieh crossfitMFIRT VIII  3:10.5   1:28.2  510.2 
125Thierry GOURSOLLEMFIRT IX  3:10.6   1:28.2  509.4 
126Alexis fourmontMFIRT IX  3:10.7   1:28.3  508.6 
127Olaf E.MFree Spirits III  3:10.8   1:28.3  507.8 
128schueyMSub 7 X  3:10.8   1:28.3  507.8 
129sprottemSYC Rowing Crew I  3:10.9   1:28.4  507.0 
130Manuel SchorermSub 7 VII  3:11.0   1:28.4  506.2 
131MerciermFIRT III  3:11.0   1:28.4  506.2 
132Steve JenningsMDLC Gidea Park I  3:11.2   1:28.5  504.6 
133Mark KeownMAge Without Limits I  3:11.4   1:28.6  503.0 
134Ramzi MalhasMFit Republik II  3:11.7   1:28.7  500.7 
135Jean-Pierre GORINmFIRT IV  3:11.7   1:28.7  500.7 
136JEFF JANEAUMFIRT IX  3:11.7   1:28.7  500.7 
137André BudzienMSYC Rowing Crew I  3:11.7   1:28.7  500.7 
138Barny.guillaumeMFIRT X  3:12.1   1:28.9  497.6 
139Benjamin CanceMSub 7 X  3:12.1   1:28.9  497.6 
140bakudaina1MSub 7 X  3:12.5   1:29.1  494.5 
141Dan AppsMFree Spirits IV  3:12.5   1:29.1  494.5 
142Kay BieriMC2TweetCrew II  3:12.7   1:29.2  492.9 
143Nicholas VerityMSub 7 XI  3:12.7   1:29.2  492.9 
144Gerard COUSINMFIRT X  3:13.0   1:29.4  490.6 
145Sebastien ChaumioleMFIRT X  3:13.0   1:29.4  490.6 
146Matty FFMForum Flyers V  3:13.4   1:29.5  487.6 
147Steve SmithMFree Spirits IV  3:13.6   1:29.6  486.1 
148Doug RollandMRowPro Rowers II  3:13.9   1:29.8  483.8 
149Craig HudsonMIndependent II  3:14.0   1:29.8  483.1 
150Charles BradleyMSub 7 XI  3:14.1   1:29.9  482.3 
151Scherrer.RomainMFIRT XI  3:14.2   1:29.9  481.6 
152Neil FairbairnMFree Spirits IV  3:14.3   1:30.0  480.9 
153Nigel BrocktonmSub 7 VIII  3:14.3   1:30.0  480.9 
154Fabien FayelmFIRT V  3:14.4   1:30.0  480.1 
155Colin O'NeillmPaddy Power II  3:14.5   1:30.0  479.4 
156Rodolphe JanodetmFIRT VI  3:14.6   1:30.1  478.6 
157Glen RhookmForum Flyers II  3:14.6   1:30.1  478.6 
158Arno SmetmC2TweetCrew I  3:14.9   1:30.2  476.4 
159patrick TERGEMINAMFIRT XI  3:15.0   1:30.3  475.7 
160Paul Duncan1MSub 7 XI  3:15.0   1:30.3  475.7 
161Are FarmenMSub 7 XII  3:15.3   1:30.4  473.5 
162Will HaskellmForum Flyers III  3:15.4   1:30.5  472.8 
163Defouchier.marcMFIRT XI  3:15.5   1:30.5  472.1 
164Trevor de KoekkoekMC2TweetCrew III  3:15.6   1:30.6  471.3 
165James Hall jnrmSub 7 IX  3:15.7   1:30.6  470.6 
166Rowland HillsMSub 7 XII  3:15.9   1:30.7  469.2 
167bertdolMSub 7 XII  3:15.9   1:30.7  469.2 
168henrik_denmarkMSub 7 XIII  3:16.1   1:30.8  467.7 
169Philip SadlerMDLC Gidea Park I  3:16.2   1:30.8  467.0 
170Cacheleux.adrienMFIRT XII  3:16.2   1:30.8  467.0 
171Ant StansbieMSub 7 XIII  3:16.6   1:31.0  464.2 
172Stuart ThorpMC2TweetCrew III  3:16.7   1:31.1  463.5 
173David JuntaMRowPro Rowers II  3:17.2   1:31.3  459.9 
174herve pruneaumFIRT VII  3:17.3   1:31.3  459.2 
175Steve BurkemForum Flyers IV  3:17.4   1:31.4  458.6 
176Deniz MahmutMDLC Gidea Park I  3:17.6   1:31.5  457.2 
177alan wisniewskiMFree Spirits V  3:17.7   1:31.5  456.5 
178Joshua CherwinskimPaddy Power III  3:17.7   1:31.5  456.5 
179Jef 76k+MSub 7 XIII  3:17.8   1:31.6  455.8 
180Mark CawthorneMFree Spirits V  3:18.1   1:31.7  453.7 
181Cedi Frederick S7MSub 7 XIV  3:18.3   1:31.8  452.3 
182andy warnerMSub 7 XIV  3:18.4   1:31.9  451.7 
183Richard CamposMSub 7 XIV  3:18.4   1:31.9  451.7 
184Anne BourliouxFRowPro Rowers I  3:18.5   1:31.9  451.0 
185Andy OsbornMSub 7 XV  3:18.6   1:31.9  450.3 
186Nick FieldingMGee Crew I  3:18.8   1:32.0  448.9 
187FunkyrowerMThe Banana Boat I  3:18.8   1:32.0  448.9 
188Maurice O'KaneMPaddy Power III  3:19.0   1:32.1  447.6 
189Sion EvansMSub 7 XV  3:19.1   1:32.2  446.9 
190Stuart PowermDLC Gidea Park I  3:20.4   1:32.8  438.3 
191Rachel HarrisFMAD I  3:20.5   1:32.8  437.6 
192Steve MotznyMAge Without Limits I  3:20.5   1:32.8  437.6 
193Nick ScottMSub 7 XV  3:20.7   1:32.9  436.3 
194Lawrence DevonMDLC Gidea Park II  3:20.8   1:33.0  435.7 
195Simon LakeMSub 7 XVI  3:21.0   1:33.1  434.4 
196SanderJRoosendaalmFree Spirits II  3:21.4   1:33.2  431.8 
197David SAGONmFIRT VIII  3:21.5   1:33.3  431.1 
198Roger Bjarm ForneboMSub 7 XVI  3:21.8   1:33.4  429.2 
199bojammSub 7 X  3:22.2   1:33.6  426.7 
200davidmarksMPaddy Power III  3:22.3   1:33.7  426.0 
201Mark UnderwoodmPaddy Power III  3:22.5   1:33.8  424.8 
202Herman de BoermC2TweetCrew II  3:22.7   1:33.8  423.5 
203Jeremy HeavenMSub 7 XVI  3:23.1   1:34.0  421.0 
204FREELANCE BG PEDRONCELLI GmCUS Bergamo I  3:23.3   1:34.1  419.8 
205AndrewPJonesMSub 7 XVII  3:23.3   1:34.1  419.8 
206pierre scheidlerMFIRT XII  3:23.4   1:34.2  419.2 
207Johan HoekemC2TweetCrew III  3:23.5   1:34.2  418.5 
208TaraFFIRT I  3:23.5   1:34.2  418.5 
209Jose CarrascomC2TweetCrew III  3:23.6   1:34.3  417.9 
210Andrew StanwayMFree Spirits V  3:24.1   1:34.5  414.9 
211WazzaSub75mSub 7 XI  3:24.2   1:34.5  414.2 
212Gary WoottonMGee Crew II  3:24.3   1:34.6  413.6 
213Kim CaloniusMForum Flyers V  3:24.3   1:34.6  413.6 
214Ronan LE LIGEOURMFIRT XII  3:24.4   1:34.6  413.0 
215Jerome CoudroyMFIRT XIII  3:24.5   1:34.7  412.4 
216William Gooner HawkinsMC2TweetCrew IV  3:24.9   1:34.9  410.0 
217George KingMTeam Oarsome II  3:25.3   1:35.0  407.6 
218Bill WakeleymRowPro Rowers II  3:25.4   1:35.1  407.0 
219Edward TaylormGee Crew I  3:25.5   1:35.1  406.4 
220Borut HafnermC2TweetCrew IV  3:25.5   1:35.1  406.4 
221Richie FallowsMDLC Gidea Park II  3:25.7   1:35.2  405.3 
222Jon HaynsMForum Flyers VI  3:25.7   1:35.2  405.3 
223rowingkiwiFForum Flyers I  3:25.8   1:35.3  404.7 
224Liam AndrewsMFit Republik II  3:26.0   1:35.4  403.5 
225Bages patriceMFIRT XIII  3:26.0   1:35.4  403.5 
226P McNeilMDLC Gidea Park II  3:26.1   1:35.4  402.9 
227Carlos RodriguezmSub 7 XII  3:26.4   1:35.6  401.1 
228BradT2 FFmForum Flyers V  3:26.5   1:35.6  400.6 
229Mark CollinsMSub 7 XVII  3:26.6   1:35.6  400.0 
230hjsMForum Flyers VI  3:26.7   1:35.7  399.4 
231paul45MPaddy Power IV  3:27.0   1:35.8  397.7 
232FREELANCE BG MASSERINI DIEGOmCUS Bergamo I  3:27.1   1:35.9  397.1 
233Jo AndrewsFSub 7 I  3:27.5   1:36.1  394.8 
234cyclingman1MIndependent II  3:27.6   1:36.1  394.2 
235Stephen GowerMRowPro Rowers II  3:27.6   1:36.1  394.2 
236Hannah HawkinsFTeam Oarsome I  3:27.7   1:36.2  393.7 
237Caloz.eliseFFIRT II  3:28.0   1:36.3  392.0 
238Ruud JackelMRowPro Rowers III  3:28.3   1:36.4  390.3 
239Arno CaloniusmForum Flyers VI  3:28.8   1:36.7  387.5 
240Jonathan Turns ETTMEmpty the Tanks I  3:29.1   1:36.8  385.8 
241Kirstin HallMSub 7 XVII  3:29.1   1:36.8  385.8 
242Victoria StarrFTribesports I  3:29.4   1:36.9  384.1 
243Chris WhaleMForum Flyers VI  3:29.5   1:37.0  383.6 
244Scott KevinMFIRT XIII  3:29.5   1:37.0  383.6 
245DAVID HEATHMSub 7 XVIII  3:29.8   1:37.1  382.0 
246vincent AdemaMFIRT XIV  3:30.0   1:37.2  380.9 
247Kristi StoddardFSub 7 II  3:30.1   1:37.3  380.3 
248OranjmIndependent I  3:30.4   1:37.4  378.7 
249Emily NewtonfSub 7 III  3:30.5   1:37.5  378.2 
250Christophe MATHIEZMFIRT XIV  3:31.5   1:37.9  372.8 
251Matt_VieiraMPaddy Power IV  3:31.5   1:37.9  372.8 
252Richard HallmSub 7 XIII  3:31.6   1:38.0  372.3 
253Paul Febery S7mSub 7 XIV  3:31.8   1:38.1  371.2 
254Tracy WatkinsFSub 7 IV  3:31.9   1:38.1  370.7 
255Phil Nolan FSMFree Spirits VI  3:31.9   1:38.1  370.7 
256gary la mouette USVMFIRT XIV  3:33.2   1:38.7  364.0 
257Charlotte PiggFMAD II  3:33.3   1:38.8  363.5 
258Alan Strang (TS)mTribesports I  3:34.0   1:39.1  359.9 
259Peter WeißMFree Spirits VI  3:34.1   1:39.1  359.4 
260Yan USVMFIRT XV  3:34.5   1:39.3  357.4 
261Natalie SilverstoneFGee Crew I  3:35.5   1:39.8  352.4 
262Stephane MEURILLONmFIRT IX  3:35.8   1:39.9  351.0 
263philippe PINOLMFIRT XV  3:35.9   1:40.0  350.5 
264Lucy OBfPaddy Power I  3:35.9   1:40.0  350.5 
265Maryanne MaguireFForum Flyers II  3:36.3   1:40.1  348.5 
266Anita PearceFC2TweetCrew I  3:36.4   1:40.2  348.1 
267Mondiere.quentinmFIRT X  3:36.4   1:40.2  348.1 
268Anthony COMBEMFIRT XV  3:36.6   1:40.3  347.1 
269Rob DrurymEmpty the Tanks I  3:36.7   1:40.3  346.6 
270Tom HaigMGee Crew II  3:36.7   1:40.3  346.6 
271Joe A KeatingmPaddy Power IV  3:37.5   1:40.7  342.8 
272PatrikmRote 87 RK II  3:37.7   1:40.8  341.9 
273Ian HowseMSub 7 XVIII  3:38.1   1:41.0  340.0 
274adelineFFIRT III  3:38.1   1:41.0  340.0 
275RGelissenmFree Spirits III  3:38.2   1:41.0  339.5 
276Jenna PaullfGee Crew II  3:39.2   1:41.5  334.9 
277Kerri ChristensenFSub 7 V  3:39.3   1:41.5  334.4 
278PaulCorriganMForum Flyers VII  3:39.4   1:41.6  334.0 
279Bruce FFMForum Flyers VII  3:39.8   1:41.8  332.2 
280Gerry KeatingMPaddy Power IV  3:40.5   1:42.1  329.0 
281valentin GABETMFIRT XVI  3:40.8   1:42.2  327.7 
282thomas jean philippemFIRT XI  3:40.9   1:42.3  327.2 
283Francesca FlatelandFSub 7 VI  3:42.3   1:42.9  321.1 
284benoit DHENNEULINmFIRT XII  3:42.8   1:43.1  318.9 
285Roger CruttendenMGee Crew II  3:43.1   1:43.3  317.6 
286FREELANCE BG BONATELLI MfCUS Bergamo I  3:43.1   1:43.3  317.6 
287Jet Ski LadyFSub 7 VII  3:43.3   1:43.4  316.8 
288Debbie BarberFForum Flyers III  3:43.4   1:43.4  316.4 
289JessikahunyfPaddy Power II  3:43.5   1:43.5  315.9 
290Josie HunsdonfSub 7 VIII  3:43.6   1:43.5  315.5 
291TinaosullivanfPaddy Power III  3:44.7   1:44.0  310.9 
292Dougie LawsonMSub 7 XVIII  3:44.8   1:44.1  310.5 
293Dee AmonfRowPro Rowers II  3:46.0   1:44.6  305.6 
294alan.lamottemFIRT XIII  3:46.6   1:44.9  303.1 
295Rick BaykomForum Flyers VII  3:47.4   1:45.3  300.0 
296FREELANCE BG LANZONI SfCUS Bergamo I  3:47.5   1:45.3  299.6 
297Peter TullettmFree Spirits IV  3:47.6   1:45.4  299.2 
298John DarlingMSub 7 XIX  3:48.0   1:45.6  297.6 
299Jessica JanzenFRowPro Rowers III  3:48.5   1:45.8  295.6 
300Marita AnderssonFRote 87 RK I  3:48.6   1:45.8  295.3 
301Andy TrippMTribesports I  3:49.4   1:46.2  292.2 
302Ali Al Amine the youngerMFit Republik II  3:49.6   1:46.3  291.4 
303SalomeFFIRT IV  3:49.8   1:46.4  290.7 
304Arlene Wade (TO)fTeam Oarsome II  3:50.5   1:46.7  288.0 
305Margo JamesfRowPro Rowers III  3:50.9   1:46.9  286.5 
306Emma Chetwynd-JarvisFFree Spirits I  3:51.3   1:47.1  285.0 
307FREELANCE BG MILANI DARIOMCUS Bergamo I  3:51.6   1:47.2  283.9 
308Laurence LOPEZFFIRT V  3:52.7   1:47.7  279.9 
309Amy FoxFFit Republik I  3:54.4   1:48.5  273.9 
310Joe GerbrickMRowPro Rowers III  3:54.8   1:48.7  272.5 
311Philip PricemFree Spirits V  3:56.9   1:49.7  265.3 
312FREELANCE BG UBIALI ENRICOmCUS Bergamo II  3:58.4   1:50.4  260.3 
313Blaimont celineFFIRT VI  4:00.0   1:51.1  255.2 
314MCombFFIRT VII  4:00.9   1:51.5  252.3 
315DrMmSub 7 XV  4:02.0   1:52.0  248.9 
316Jackie HicksFIndependent I  4:02.0   1:52.0  248.9 
317Lene Farmen-HallFSub 7 IX  4:02.3   1:52.2  248.0 
318Roger BurrellmFree Spirits VI  4:03.2   1:52.6  245.2 
319Peter SheeanmForum Flyers VII  4:06.0   1:53.9  236.9 
320Deniz UnayfFit Republik II  4:06.3   1:54.0  236.1 
321Nadine CoudroyfFIRT VIII  4:07.0   1:54.4  234.1 
322bertru.theomFIRT XIV  4:07.0   1:54.4  234.1 
323Sarah Doyle PPFPaddy Power IV  4:07.7   1:54.7  232.1 
324diana kornbrotFSub 7 X  4:08.3   1:55.0  230.4 
325didier MOUTONMFIRT XVI  4:08.5   1:55.0  229.9 
326louise687FFIRT IX  4:09.0   1:55.3  228.5 
327Bluebell31FSub 7 XI  4:09.2   1:55.4  227.9 
328HassanAMCampusSport I  4:10.2   1:55.8  225.2 
329KM LimFSub 7 XII  4:10.7   1:56.1  223.9 
330FREELANCE BG GIACOMETTI ROSELLAfCUS Bergamo II  4:12.4   1:56.9  219.4 
331manon rstvfFIRT X  4:12.5   1:56.9  219.1 
332Beauvou.carolineFFIRT XI  4:12.8   1:57.0  218.3 
333anne-sophie LAINEFFIRT XII  4:13.4   1:57.3  216.8 
334Anne LiseFForum Flyers IV  4:13.8   1:57.5  215.8 
335Amanda GurleyFSub 7 XIII  4:13.8   1:57.5  215.8 
336lorentxa.GFFIRT XIII  4:14.1   1:57.6  215.0 
337clareburrellfFree Spirits II  4:14.5   1:57.8  214.0 
338Susan YoungFSub 7 XIV  4:15.3   1:58.2  212.0 
339Rod ChinnMSub 7 XIX  4:16.0   1:58.5  210.2 
340delphine MORICEFFIRT XIV  4:18.2   1:59.5  204.9 
341Jas FFfForum Flyers V  4:19.8   2:00.3  201.1 
342Beaumont.marieclaireFFIRT XV  4:20.5   2:00.6  199.5 
343Deborah AbbottFSub 7 XV  4:22.8   2:01.7  194.3 
344Carol WoodwardfSub 7 XVI  4:23.7   2:02.1  192.4 
345Maddie FFFForum Flyers VI  4:27.3   2:03.8  184.7 
346Sala.thomasMFIRT XVI  4:29.2   2:04.6  180.8 
347FREELANCE BG BERGAMASCHI ROBERTAfCUS Bergamo II  4:30.8   2:05.4  177.6 
348PeggyHfFree Spirits III  4:31.8   2:05.8  175.7 
349Carmen MartinezfFit Republik III  4:33.6   2:06.7  172.2 
350Jennifer VictoryfFree Spirits IV  4:42.3   2:10.7  156.8 
351manue M - aipFFIRT XVI  4:42.6   2:10.8  156.3 
352Marie HaigFGee Crew II  4:47.1   2:12.9  149.0 
353FREELANCE BG CORTINOVIS SILVANAFCUS Bergamo II  4:48.5   2:13.6  146.9 
354Candida BfTribesports II  4:51.0   2:14.7  143.1 
355christine.RFFIRT XVII  4:51.3   2:14.9  142.7 
356Elise Chaumiole IIFFIRT XVII  4:52.6   2:15.5  140.8 
357Lacorne.coralinefFIRT XV  5:00.3   2:19.0  130.2 
358Gillian BurrellfFree Spirits V  5:00.5   2:19.1  130.0 
359mjpermuthfAge Without Limits I  5:29.4   2:32.5  98.7 
1
58 pts
Forum Flyers I 2:56.7
Dirk Möller (H)
rich pruyn (H)
macroth (H)
Chris FF (L)
rowingkiwi (F)
2
57 pts
Sub 7 I 2:58.2
Shaun Gibbs (H)
Matt Vanstone (H)
Casey Clarke (H)
David Byrnes (L)
Jo Andrews (F)
3
56 pts
MAD I 2:59.0
Rich Blagrove (H)
Jon Goodall (H)
Pete Marston (H)
Kieran Cahill (L)
Rachel Harris (F)
4
55 pts
FIRT I 3:01.0
Vincent noirot (H)
Merlen.Alexandre (H)
R2C2 (H)
js.kls (L)
Tara (F)
5
54 pts
Sub 7 II 3:01.4
Lloyd Gilby (H)
Ben Gilmore (H)
David Scott (H)
Markku Henriksson (L)
Kristi Stoddard (F)
6
53 pts
RowPro Rowers I 3:03.7
Stewart Wyllie (H)
Sergio Botti (H)
Ryan Hosking (L)
Arwed Egger (L)
Anne Bourlioux (F)
7
52 pts
Sub 7 III 3:04.3
Mark Powell (H)
Alan Thomas (H)
Martin Still (H)
FS85 (L)
Emily Newton (F)
8
51 pts
Paddy Power I 3:05.3
noel (H)
Julian Warrick (H)
Jason McCormack (H)
Jonathan Doyle (L)
Lucy OB (F)
9
50 pts
FIRT II 3:05.7
Jean-Charles RS (H)
Vivien Marmelat (H)
Thibaud MISCORIA (H)
david FROC (L)
Caloz.elise (F)
10
49 pts
Forum Flyers II 3:06.6
Shawn Baker (H)
Mark Christie (H)
MarkM FF (H)
Glen Rhook (L)
Maryanne Maguire (F)
11
48 pts
Sub 7 IV 3:07.3
Walter Zagzebski (H)
Ian AllenS7 (H)
Ian Witt (H)
Stuart Jackson (L)
Tracy Watkins (F)
12
47 pts
C2TweetCrew I 3:07.7
Phil Hoyle (H)
Charles Anderson (H)
Andy J Pearce (H)
Arno Smet (L)
Anita Pearce (F)
13
46 pts
FIRT III 3:09.0
GukU (H)
bruce (H)
Gaël SAGON (H)
Mercier (L)
adeline (F)
14
45 pts
Free Spirits I 3:09.6
Liefcat (H)
danfennell (H)
Christopher Ryan (H)
John Steventon (L)
Emma Chetwynd-Jarvis (F)
15
44 pts
Team Oarsome I 3:09.9
Dave Chmilowskyj (H)
Andy Burrows (H)
Steve Roedde (L)
Gregory Cook II (L)
Hannah Hawkins (F)
16
43 pts
Sub 7 V 3:09.9
Jonty Leese (H)
Johnny Kolster (H)
Barry Greig (H)
Steve Berridge (L)
Kerri Christensen (F)
17
42 pts
Forum Flyers III 3:11.8
Martin FF (H)
Lindsayh (H)
Frank Noorlander (H)
Will Haskell (L)
Debbie Barber (F)
18
41 pts
Sub 7 VI 3:12.4
Robert Jones (H)
Aaron Lancaster (H)
Richard Cheeseman (H)
Dimos (L)
Francesca Flateland (F)
19
40 pts
Sub 7 VII 3:13.6
Mike Beauchamp (H)
Mark Lysons (H)
Richard Steventon (H)
Manuel Schorer (L)
Jet Ski Lady (F)
20
39 pts
Rote 87 RK I 3:13.7
Johan Eklund (H)
Thomas Poppen (H)
D Wiklander (H)
Conny J. (L)
Marita Andersson (F)
21
38 pts
FIRT IV 3:14.3
MBOY-AIP (H)
Pitras sebastien (H)
Julien ADAN (H)
Jean-Pierre GORIN (L)
Salome (F)
22
37 pts
Paddy Power II 3:15.0
Richard Moorehead (H)
Dan mynard (H)
Paosullivan (H)
Colin O'Neill (L)
Jessikahuny (F)
23
36 pts
Sub 7 VIII 3:15.2
Giles Clarke (H)
Stewart Moss (H)
Steve Sidaway (H)
Nigel Brockton (L)
Josie Hunsdon (F)
24
35 pts
Fit Republik I 3:15.5
James Pritchard (H)
Yousef Nassar (H)
Gareth Bacon (H)
Nizar El Ahmar (L)
Amy Fox (F)
25
34 pts
FIRT V 3:17.2
EricL (H)
Tjololo (H)
Pierre LGM (H)
Fabien Fayel (L)
Laurence LOPEZ (F)
26
33 pts
Gee Crew I 3:17.5
Simon Newton (H)
Andy Parkes (H)
Nick Fielding (H)
Edward Taylor (L)
Natalie Silverstone (F)
27
32 pts
FIRT VI 3:19.6
Aurelien USV (H)
Nicolas.maxime (H)
tibo (H)
Rodolphe Janodet (L)
Blaimont celine (F)
28
31 pts
Sub 7 IX 3:20.1
Jonathan Turns S7 (H)
Jon Ciarlo (H)
Sean McGuigan (H)
James Hall jnr (L)
Lene Farmen-Hall (F)
29
30 pts
FIRT VII 3:20.7
Avedikian.mathieu (H)
Mauhourat.guillaume (H)
JFF.54 (H)
herve pruneau (L)
MComb (F)
30
29 pts
Forum Flyers IV 3:20.9
Hillclimber (H)
Matt B Brown (H)
Rolf Boers (H)
Steve Burke (L)
Anne Lise (F)
31
28 pts
Free Spirits II 3:21.3
Hewitt (H)
haaico (H)
gregsmith01748 (H)
SanderJRoosendaal (L)
clareburrell (F)
32
27 pts
Independent I 3:21.4
Gary Curtis (H)
James stapleton (H)
Marc Barfoot (H)
Oranj (L)
Jackie Hicks (F)
33
26 pts
FIRT VIII 3:23.7
Adam Fred (H)
Xav salamandre (H)
attieh crossfit (H)
David SAGON (L)
Nadine Coudroy (F)
34
25 pts
Tribesports I 3:23.9
Ben M (H)
Mike Channin (Tribesports) (H)
Andy Tripp (H)
Alan Strang (TS) (L)
Victoria Starr (F)
35
24 pts
Sub 7 X 3:25.1
schuey (H)
Benjamin Cance (H)
bakudaina1 (H)
bojam (L)
diana kornbrot (F)
36
23 pts
Paddy Power III 3:25.2
Maurice O'Kane (H)
davidmarks (H)
Joshua Cherwinski (L)
Mark Underwood (L)
Tinaosullivan (F)
37
22 pts
RowPro Rowers II 3:26.0
Doug Rolland (H)
David Junta (H)
Stephen Gower (H)
Bill Wakeley (L)
Dee Amon (F)
38
21 pts
Sub 7 XI 3:27.0
Nicholas Verity (H)
Charles Bradley (H)
Paul Duncan1 (H)
WazzaSub75 (L)
Bluebell31 (F)
39
20 pts
FIRT IX 3:27.5
Thierry GOURSOLLE (H)
Alexis fourmont (H)
JEFF JANEAU (H)
Stephane MEURILLON (L)
louise687 (F)
40
19 pts
Sub 7 XII 3:28.8
Are Farmen (H)
Rowland Hills (H)
bertdol (H)
Carlos Rodriguez (L)
KM Lim (F)
41
18 pts
FIRT X 3:29.4
Barny.guillaume (H)
Gerard COUSIN (H)
Sebastien Chaumiole (H)
Mondiere.quentin (L)
manon rstv (F)
42
17 pts
Forum Flyers V 3:30.8
Nigel Farmer (H)
Matty FF (H)
Kim Calonius (H)
BradT2 FF (L)
Jas FF (F)
43
16 pts
Sub 7 XIII 3:31.1
henrik_denmark (H)
Ant Stansbie (H)
Jef 76k+ (H)
Richard Hall (L)
Amanda Gurley (F)
44
15 pts
FIRT XI 3:31.6
Scherrer.Romain (H)
patrick TERGEMINA (H)
Defouchier.marc (H)
thomas jean philippe (L)
Beauvou.caroline (F)
45
14 pts
Free Spirits III 3:31.7
Boris Lewandowski (H)
Paul Victory (H)
Olaf E. (H)
RGelissen (L)
PeggyH (F)
46
13 pts
Sub 7 XIV 3:32.4
Cedi Frederick S7 (H)
andy warner (H)
Richard Campos (H)
Paul Febery S7 (L)
Susan Young (F)
47
12 pts
Fit Republik II 3:32.6
Ramzi Malhas (H)
Liam Andrews (H)
Ali Al Amine the younger (H)
Nick Mallory (L)
Deniz Unay (F)
48
11 pts
FIRT XII 3:36.0
Cacheleux.adrien (H)
pierre scheidler (H)
Ronan LE LIGEOUR (H)
benoit DHENNEULIN (L)
anne-sophie LAINE (F)
49
10 pts
Free Spirits IV 3:38.0
Dan Apps (H)
Steve Smith (H)
Neil Fairbairn (H)
Peter Tullett (L)
Jennifer Victory (F)
50
9 pts
CUS Bergamo I 3:38.5
FREELANCE BG MILANI DARIO (H)
FREELANCE BG PEDRONCELLI G (L)
FREELANCE BG MASSERINI DIEGO (L)
FREELANCE BG LANZONI S (L)
FREELANCE BG BONATELLI M (F)
51
8 pts
Forum Flyers VI 3:39.6
Jon Hayns (H)
hjs (H)
Chris Whale (H)
Arno Calonius (L)
Maddie FF (F)
52
7 pts
FIRT XIII 3:40.1
Jerome Coudroy (H)
Bages patrice (H)
Scott Kevin (H)
alan.lamotte (L)
lorentxa.G (F)
53
6 pts
Sub 7 XV 3:40.6
Andy Osborn (H)
Sion Evans (H)
Nick Scott (H)
DrM (L)
Deborah Abbott (F)
54
5 pts
Paddy Power IV 3:40.8
paul45 (H)
Matt_Vieira (H)
Gerry Keating (H)
Joe A Keating (L)
Sarah Doyle PP (F)
55
4 pts
Free Spirits V 3:47.4
alan wisniewski (H)
Mark Cawthorne (H)
Andrew Stanway (H)
Philip Price (L)
Gillian Burrell (F)
56
3 pts
FIRT XIV 3:47.9
vincent Adema (H)
Christophe MATHIEZ (H)
gary la mouette USV (H)
bertru.theo (L)
delphine MORICE (F)
57
2 pts
Gee Crew II 3:50.0
Gary Wootton (H)
Tom Haig (H)
Roger Cruttenden (H)
Jenna Paull (L)
Marie Haig (F)
58
1 pt
FIRT XV 4:01.5
Yan USV (H)
philippe PINOL (H)
Anthony COMBE (H)
Lacorne.coraline (L)
Beaumont.marieclaire (F)
59Fitness Matters I 2:59.1
Howard Brammer (H)
 
60SYC Rowing Crew I 3:11.3
André Budzien (H)
sprotte (L)
 
61C2TweetCrew II 3:11.4
Ralf Achenbach (H)
Rae Carter (H)
Kay Bieri (H)
Herman de Boer (L)
62The Banana Boat I 3:11.4
Funkyrower (H)
Little Chris (L)
 
63DLC Gidea Park I 3:16.3
Steve Jennings (H)
Philip Sadler (H)
Deniz Mahmut (H)
Stuart Power (L)
64C2TweetCrew III 3:19.8
Trevor de Koekkoek (H)
Stuart Thorp (H)
Johan Hoeke (L)
Jose Carrasco (L)
65Independent II 3:20.8
Craig Hudson (H)
cyclingman1 (H)
 
66DLC Gidea Park II 3:24.2
Lawrence Devon (H)
Richie Fallows (H)
P McNeil (H)
 
67C2TweetCrew IV 3:25.2
William Gooner Hawkins (H)
Borut Hafner (L)
 
68Sub 7 XVII 3:26.3
AndrewPJones (H)
Mark Collins (H)
Kirstin Hall (H)
 
69Empty the Tanks I 3:32.9
Jonathan Turns ETT (H)
Rob Drury (L)
 
70MAD II 3:33.3
Charlotte Pigg (F)
 
71Sub 7 XVI 3:37.4
Simon Lake (H)
Roger Bjarm Fornebo (H)
Jeremy Heaven (H)
Carol Woodward (L)
72Sub 7 XVIII 3:37.5
DAVID HEATH (H)
Ian Howse (H)
Dougie Lawson (H)
 
73Rote 87 RK II 3:37.7
Patrik (L)
 
74Team Oarsome II 3:37.9
George King (H)
Arlene Wade (TO) (L)
 
75Free Spirits VI 3:43.0
Phil Nolan FS (H)
Peter Weiß (H)
Roger Burrell (L)
 
76RowPro Rowers III 3:45.6
Ruud Jackel (H)
Joe Gerbrick (H)
Margo James (L)
Jessica Janzen (F)
77Forum Flyers VII 3:48.1
PaulCorrigan (H)
Bruce FF (H)
Rick Bayko (L)
Peter Sheean (L)
78Age Without Limits I 4:00.4
Mark Keown (H)
Steve Motzny (H)
mjpermuth (L)
 
79Sub 7 XIX 4:02.0
John Darling (H)
Rod Chinn (H)
 
80CampusSport I 4:10.2
HassanA (H)
 
81FIRT XVI 4:15.2
valentin GABET (H)
didier MOUTON (H)
Sala.thomas (H)
manue M - aip (F)
82CUS Bergamo II 4:22.5
FREELANCE BG UBIALI ENRICO (L)
FREELANCE BG BERGAMASCHI ROBERTA (L)
FREELANCE BG GIACOMETTI ROSELLA (F)
FREELANCE BG CORTINOVIS SILVANA (F)
83Fit Republik III 4:33.6
Carmen Martinez (L)
 
84Tribesports II 4:51.0
Candida B (L)
 
85FIRT XVII 4:51.9
christine.R (F)
Elise Chaumiole II (F)
 

The Cross-Team Challenge is not supported or endorsed by Concept 2.
Site written by Daren Chandisingh. Please post any problems on the UK Concept 2 forum.

Valid XHTML 1.0 Transitional